Location: Eaton Estates
(41.3089°N, 82.0057°W)
Time: 15:42:10
(UTC+00:00)

H-2A R/B - Pass Details

Date: 17 June 2021
Orbit: 574 x 597 km, 98.2° (Epoch: 01 August)

Event Time Altitude Azimuth Distance (km) Brightness Sun altitude
Rises 02:52:13 0° 22° (NNE) 2,793 7.4 -15.8°
Reaches altitude 10° 02:54:32 10° 32° (NNE) 1,889 6.3 -16.1°
Maximum altitude 02:58:16 33° 98° (E) 967 4.2 -16.5°
Enters shadow 02:59:02 31° 122° (ESE) 1,024 4.2 -16.6°
